Tbilisi International Air, Georgia

5:48 AM +04 on December 13, 2019 (GMT +0400)
Tbilisi International Air

Weather History for UGTB - July, 2019

Change the Weather History Date:

Sunday, July 21, 2019

  Actual Average Record
Temperature  
Mean Temperature 86 °F -  
Max Temperature 95 °F - - ()
Min Temperature 77 °F - - ()
Cooling Degree Days 21    
Growing Degree Days 36 (Base 50)    
Moisture  
Dew Point 59 °F    
Average Humidity 41    
Maximum Humidity 54    
Minimum Humidity 28    
Precipitation  
Precipitation 0.00 in - - ()
Sea Level Pressure  
Sea Level Pressure 30.02 in    
Wind  
Wind Speed 5 mph ()    
Max Wind Speed 13 mph    
Max Gust Speed -    
Visibility 6.2 miles    
Events      
T = Trace of Precipitation, MM = Missing Value Source: Averaged Metar Reports

Daily Weather History Graph

Daily Weather History Graph

Search for Another Location

Airport or City:

Astronomy

Jul. 21, 2019 Rise Set
Actual Time 5:43 AM +04 8:29 PM +04
Civil Twilight 5:11 AM +04 9:01 PM +04
Nautical Twilight 4:30 AM +04 9:42 PM +04
Astronomical Twilight 3:43 AM +04 10:29 PM +04
Moon 11:10 PM +04 (7/21) 9:45 AM +04 (7/21)
Length of Visible Light 15h 50m
Length of Day
14h 45m
Waning Gibbous, 83% of the Moon is Illuminated
Jul 21
Waning Gibbous
Jul 25
Last Quarter
Aug 1
New
Aug 7
First Quarter
Aug 15
Full

Hourly Weather History & Observations

Time (+04) Temp. Heat Index Dew Point Humidity Pressure Visibility Wind Dir Wind Speed Gust Speed Precip Events Conditions
12:30 AM 82.4 °F 82.9 °F 60.8 °F 48% 30.04 in - NE 6.9 mph - N/A   Clear
1:00 AM 82.4 °F 82.9 °F 60.8 °F 48% 30.04 in - ENE 8.1 mph - N/A   Clear
1:30 AM 82.4 °F 82.9 °F 60.8 °F 48% - - East 4.6 mph - N/A   Clear
3:00 AM 80.6 °F 81.8 °F 62.6 °F 54% 30.06 in - Calm Calm - N/A   Clear
3:30 AM 80.6 °F 81.8 °F 62.6 °F 54% 30.06 in - Calm Calm - N/A   Clear
4:00 AM 80.6 °F 81.1 °F 59.0 °F 48% 30.06 in - SE 5.8 mph - N/A   Clear
4:30 AM 80.6 °F 81.1 °F 59.0 °F 48% 30.06 in - SSE 5.8 mph - N/A   Clear
5:00 AM 78.8 °F - 59.0 °F 51% 30.06 in - SSE 5.8 mph - N/A   Clear
6:00 AM 77.0 °F - 59.0 °F 54% 30.09 in - South 3.5 mph - N/A   Clear
6:30 AM 77.0 °F - 59.0 °F 54% 30.09 in - SSW 2.3 mph - N/A   Clear
7:00 AM 77.0 °F - 59.0 °F 54% 30.09 in - SSE 3.5 mph - N/A   Clear
7:30 AM 78.8 °F - 59.0 °F 51% 30.09 in - South 3.5 mph - N/A   Clear
8:00 AM 82.4 °F 82.0 °F 57.2 °F 42% 30.09 in - SSE 3.5 mph - N/A   Clear
8:30 AM 80.6 °F 80.8 °F 57.2 °F 45% 30.09 in - SSW 3.5 mph - N/A   Clear
9:30 AM 82.4 °F 82.0 °F 57.2 °F 42% 30.06 in - Variable 3.5 mph - N/A   Clear
10:00 AM 86.0 °F 85.4 °F 59.0 °F 40% 30.06 in - West 4.6 mph - N/A   Clear
10:30 AM 86.0 °F 85.4 °F 59.0 °F 40% 30.06 in - West 4.6 mph - N/A   Clear
11:30 AM 87.8 °F 87.1 °F 59.0 °F 38% 30.04 in - Variable 8.1 mph - N/A   Clear
12:00 PM 91.4 °F 90.7 °F 59.0 °F 34% 30.04 in 6.2 mi SSE 8.1 mph - N/A   Scattered Clouds
12:30 PM 93.2 °F 92.6 °F 59.0 °F 32% 30.04 in 6.2 mi SSE 10.4 mph - N/A   Scattered Clouds
1:00 PM 93.2 °F 92.6 °F 59.0 °F 32% 30.01 in 6.2 mi Variable 9.2 mph - N/A   Scattered Clouds
1:30 PM 93.2 °F 92.6 °F 59.0 °F 32% 30.01 in - SSE 8.1 mph - N/A   Clear
2:00 PM 95.0 °F 94.4 °F 59.0 °F 30% 29.98 in - East 9.2 mph - N/A   Clear
3:00 PM 95.0 °F 93.7 °F 57.2 °F 28% 29.98 in - ESE 12.7 mph - N/A   Clear
3:30 PM 95.0 °F 93.7 °F 57.2 °F 28% 29.98 in - SE 8.1 mph - N/A   Clear
4:00 PM 93.2 °F 91.9 °F 57.2 °F 30% 29.95 in - SE 12.7 mph - N/A   Clear
4:30 PM 93.2 °F 92.6 °F 59.0 °F 32% 29.95 in - South 9.2 mph - N/A   Clear
5:00 PM 95.0 °F 93.7 °F 57.2 °F 28% 29.95 in - SSE 11.5 mph - N/A   Clear
5:30 PM 93.2 °F 92.6 °F 59.0 °F 32% 29.95 in - SE 8.1 mph - N/A   Clear
7:00 PM 91.4 °F 90.7 °F 59.0 °F 34% 29.92 in - South 8.1 mph - N/A   Clear
9:00 PM 87.8 °F 87.1 °F 59.0 °F 38% 29.95 in - NNE 6.9 mph - N/A   Clear
9:30 PM 87.8 °F 87.1 °F 59.0 °F 38% 29.95 in - NNE 10.4 mph - N/A   Clear
10:00 PM 86.0 °F 85.4 °F 59.0 °F 40% 29.95 in - NNE 9.2 mph - N/A   Clear
11:30 PM 82.4 °F 83.4 °F 62.6 °F 51% 29.95 in - NNW 8.1 mph - N/A   Clear